Terminal Aerodrome Forecast
Issued by NWS

Home | Current Version | Previous Version | Text Only | Print | Product List | Glossary On
Versions: 1 2 3 4 5 6 7 8 9 10 11 12 13 14 15 16 17 18 19 20 21 22 23 24
000
FTUS43 KMQT 211700
TAFCMX
TAF
KCMX 211730Z 2118/2218 10008KT P6SM OVC004
     FM211900 10008KT P6SM BKN025
     FM212100 11006KT P6SM BKN045
     FM220300 13006KT 1/2SM FG VCSH OVC002
     FM221500 13006KT 6SM BR BKN015=

USA.gov is the U.S. government's official web portal to all federal, state and local government web resources and services.